This is the latest recevied weather packets stored in our database for station/object NK7E-1. If no packets are shown the sender has not sent any weather packets the latest 10 day(s).
| Time | Temp. | Humidity | Pressure | Rain* | Wind** | Luminosity | Snow |
|---|---|---|---|---|---|---|---|
| 1777583400 | 30.56° C | 11% | 1007.9 hPa | 0 mm | - | - | - |
| 1777582799 | 30.56° C | 10% | 1008.3 hPa | 0 mm | - | - | - |
| 1777582199 | 30.56° C | 10% | 1008.3 hPa | 0 mm | - | - | - |
| 1777581598 | 30° C | 10% | 1008.5 hPa | 0 mm | - | - | - |
| 1777580999 | 30° C | 10% | 1008.8 hPa | 0 mm | - | - | - |
| 1777580399 | 30° C | 10% | 1008.9 hPa | 0 mm | - | - | - |
| 1777579799 | 30° C | 10% | 1009 hPa | 0 mm | - | - | - |
| 1777579201 | 28.89° C | 11% | 1009.3 hPa | 0 mm | - | - | - |
| 1777578600 | 28.33° C | 11% | 1009.4 hPa | 0 mm | - | - | - |
| 1777577999 | 28.89° C | 10% | 1009.7 hPa | 0 mm | - | - | - |
| 1777577399 | 30° C | 10% | 1009.8 hPa | 0 mm | - | - | - |
| 1777576799 | 28.89° C | 11% | 1010 hPa | 0 mm | - | - | - |
| 1777576199 | 28.89° C | 11% | 1010.2 hPa | 0 mm | - | - | - |
| 1777575601 | 28.89° C | 11% | 1010.3 hPa | 0 mm | - | - | - |
| 1777575001 | 27.78° C | 12% | 1010.5 hPa | 0 mm | - | - | - |
| 1777574400 | 27.22° C | 12% | 1010.7 hPa | 0 mm | - | - | - |
| 1777573801 | 27.78° C | 12% | 1011 hPa | 0 mm | - | - | - |
| 1777573200 | 27.78° C | 12% | 1011.2 hPa | 0 mm | - | - | - |
| 1777572600 | 26.67° C | 13% | 1011.4 hPa | 0 mm | - | - | - |
| 1777572000 | 26.67° C | 13% | 1011.6 hPa | 0 mm | - | - | - |
| 1777571399 | 26.11° C | 14% | 1011.7 hPa | 0 mm | - | - | - |
| 1777570800 | 26.11° C | 13% | 1011.9 hPa | 0 mm | - | - | - |
| 1777570199 | 25.56° C | 15% | 1012 hPa | 0 mm | - | - | - |
| 1777569599 | 25° C | 18% | 1012.1 hPa | 0 mm | - | - | - |
| 1777568999 | 25° C | 19% | 1012.2 hPa | 0 mm | - | - | - |
* Rain latest hour (hover to see other rain measurements)
** Current wind speed in m/s (hover to see current wind gust speed)